Time,TemperatureF,DewpointF,PressureIn,WindDirection,WindDirectionDegrees,WindSpeedMPH,WindSpeedGustMPH,Humidity,HourlyPrecipIn,Conditions,Clouds,dailyrainin,SoftwareType,DateUTC
2013-07-14 00:09:00,72.0,65.0,30.11,East,101,0.0,1.0,79,0.00,,,0.00,weatherlink.com 1.10,2013-07-14 04:09:00,
2013-07-14 00:24:00,71.2,65.0,30.11,NNE,13,0.0,1.0,81,0.00,,,0.00,weatherlink.com 1.10,2013-07-14 04:24:00,
2013-07-14 00:39:00,70.8,65.0,30.11,North,354,0.0,1.0,82,0.00,,,0.00,weatherlink.com 1.10,2013-07-14 04:39:00,
2013-07-14 00:54:00,70.0,65.0,30.11,North,356,1.0,1.0,84,0.00,,,0.00,weatherlink.com 1.10,2013-07-14 04:54:00,
2013-07-14 01:09:00,70.2,65.0,30.11,East,95,0.0,1.0,84,0.00,,,0.00,weatherlink.com 1.10,2013-07-14 05:09:00,
2013-07-14 01:24:00,69.7,65.0,30.11,East,94,0.0,0.0,85,0.00,,,0.00,weatherlink.com 1.10,2013-07-14 05:24:00,
2013-07-14 01:39:00,69.4,65.0,30.11,East,94,0.0,0.0,86,0.00,,,0.00,weatherlink.com 1.10,2013-07-14 05:39:00,
2013-07-14 01:54:00,69.2,65.0,30.11,ESE,107,0.0,1.0,86,0.00,,,0.00,weatherlink.com 1.10,2013-07-14 05:54:00,
2013-07-14 02:09:00,69.2,65.0,30.11,North,349,0.0,1.0,86,0.00,,,0.00,weatherlink.com 1.10,2013-07-14 06:09:00,
2013-07-14 02:24:00,68.7,65.0,30.10,North,352,0.0,1.0,87,0.00,,,0.00,weatherlink.com 1.10,2013-07-14 06:24:00,
2013-07-14 02:39:00,68.8,65.0,30.10,WNW,300,0.0,1.0,88,0.00,,,0.00,weatherlink.com 1.10,2013-07-14 06:39:00,
2013-07-14 02:54:00,68.7,65.0,30.10,West,278,0.0,0.0,88,0.00,,,0.00,weatherlink.com 1.10,2013-07-14 06:54:00,
2013-07-14 03:09:00,68.8,65.0,30.10,SE,131,0.0,0.0,87,0.00,,,0.00,weatherlink.com 1.10,2013-07-14 07:09:00,
2013-07-14 03:24:00,69.1,65.0,30.09,ESE,114,0.0,1.0,87,0.00,,,0.00,weatherlink.com 1.10,2013-07-14 07:24:00,
2013-07-14 03:39:00,69.5,65.0,30.09,SSE,159,0.0,1.0,86,0.00,,,0.00,weatherlink.com 1.10,2013-07-14 07:39:00,
2013-07-14 03:54:00,69.9,66.0,30.09,SSW,197,0.0,1.0,86,0.00,,,0.00,weatherlink.com 1.10,2013-07-14 07:54:00,
2013-07-14 04:09:00,69.9,66.0,30.09,ENE,74,0.0,3.0,86,0.00,,,0.00,weatherlink.com 1.10,2013-07-14 08:09:00,
2013-07-14 04:24:00,69.8,66.0,30.09,SE,128,0.0,4.0,86,0.00,,,0.00,weatherlink.com 1.10,2013-07-14 08:24:00,
2013-07-14 04:39:00,69.4,65.0,30.09,SE,143,0.0,4.0,86,0.00,,,0.00,weatherlink.com 1.10,2013-07-14 08:39:00,
2013-07-14 04:54:00,69.0,65.0,30.09,East,86,0.0,3.0,87,0.00,,,0.00,weatherlink.com 1.10,2013-07-14 08:54:00,
2013-07-14 05:09:00,68.5,65.0,30.10,ESE,110,0.0,1.0,88,0.00,,,0.00,weatherlink.com 1.10,2013-07-14 09:09:00,
2013-07-14 05:24:00,67.8,65.0,30.10,ESE,110,0.0,1.0,89,0.00,,,0.00,weatherlink.com 1.10,2013-07-14 09:24:00,
2013-07-14 05:39:00,67.2,64.0,30.11,ESE,110,0.0,0.0,90,0.00,,,0.00,weatherlink.com 1.10,2013-07-14 09:39:00,
2013-07-14 05:54:00,66.7,64.0,30.11,ESE,110,0.0,0.0,91,0.00,,,0.00,weatherlink.com 1.10,2013-07-14 09:54:00,
2013-07-14 06:09:00,66.6,64.0,30.11,ESE,110,0.0,1.0,92,0.00,,,0.00,weatherlink.com 1.10,2013-07-14 10:09:00,
2013-07-14 06:24:00,66.5,64.0,30.12,ESE,108,0.0,1.0,92,0.00,,,0.00,weatherlink.com 1.10,2013-07-14 10:24:00,
2013-07-14 06:39:00,67.1,65.0,30.12,East,80,1.0,3.0,92,0.00,,,0.00,weatherlink.com 1.10,2013-07-14 10:39:00,
2013-07-14 06:54:00,67.3,65.0,30.12,East,80,0.0,2.0,91,0.00,,,0.00,weatherlink.com 1.10,2013-07-14 10:54:00,
2013-07-14 07:09:00,67.5,65.0,30.13,ENE,75,1.0,2.0,91,0.00,,,0.00,weatherlink.com 1.10,2013-07-14 11:09:00,
2013-07-14 07:24:00,68.3,66.0,30.13,ESE,114,0.0,2.0,91,0.00,,,0.00,weatherlink.com 1.10,2013-07-14 11:24:00,
2013-07-14 07:40:00,69.7,66.0,30.13,SE,131,1.0,2.0,89,0.00,,,0.00,weatherlink.com 1.10,2013-07-14 11:40:00,
2013-07-14 07:55:00,72.9,68.0,30.14,East,80,2.0,2.0,83,0.00,,,0.00,weatherlink.com 1.10,2013-07-14 11:55:00,
2013-07-14 08:10:00,74.4,68.0,30.14,ENE,70,3.0,3.0,80,0.00,,,0.00,weatherlink.com 1.10,2013-07-14 12:10:00,
2013-07-14 08:25:00,77.1,70.0,30.13,South,190,0.0,4.0,78,0.00,,,0.00,weatherlink.com 1.10,2013-07-14 12:25:00,
2013-07-14 08:40:00,78.9,70.0,30.14,NE,53,2.0,4.0,73,0.00,,,0.00,weatherlink.com 1.10,2013-07-14 12:40:00,
2013-07-14 08:55:00,79.2,70.0,30.14,SW,220,0.0,3.0,74,0.00,,,0.00,weatherlink.com 1.10,2013-07-14 12:55:00,
2013-07-14 09:10:00,80.2,70.0,30.14,SE,140,1.0,6.0,72,0.00,,,0.00,weatherlink.com 1.10,2013-07-14 13:10:00,
2013-07-14 09:25:00,81.9,71.0,30.14,SSE,159,5.0,5.0,70,0.00,,,0.00,weatherlink.com 1.10,2013-07-14 13:25:00,
2013-07-14 09:40:00,83.0,72.0,30.14,NNE,32,2.0,5.0,70,0.00,,,0.00,weatherlink.com 1.10,2013-07-14 13:40:00,
2013-07-14 09:55:00,84.3,72.0,30.14,SE,139,1.0,5.0,66,0.00,,,0.00,weatherlink.com 1.10,2013-07-14 13:55:00,
2013-07-14 10:10:00,84.6,72.0,30.14,East,89,0.0,4.0,67,0.00,,,0.00,weatherlink.com 1.10,2013-07-14 14:10:00,
2013-07-14 10:25:00,85.1,72.0,30.14,East,96,4.0,5.0,66,0.00,,,0.00,weatherlink.com 1.10,2013-07-14 14:25:00,
2013-07-14 10:40:00,85.2,72.0,30.14,NE,50,2.0,4.0,65,0.00,,,0.00,weatherlink.com 1.10,2013-07-14 14:40:00,
2013-07-14 10:55:00,84.6,72.0,30.13,ESE,119,2.0,6.0,67,0.00,,,0.00,weatherlink.com 1.10,2013-07-14 14:55:00,
2013-07-14 11:10:00,85.9,74.0,30.14,West,281,1.0,5.0,67,0.00,,,0.00,weatherlink.com 1.10,2013-07-14 15:10:00,
2013-07-14 11:25:00,86.1,73.0,30.14,ENE,73,4.0,6.0,64,0.00,,,0.00,weatherlink.com 1.10,2013-07-14 15:25:00,
2013-07-14 11:40:00,86.5,73.0,30.13,North,356,1.0,5.0,64,0.00,,,0.00,weatherlink.com 1.10,2013-07-14 15:40:00,
2013-07-14 11:55:00,86.6,71.0,30.13,ESE,118,2.0,7.0,60,0.00,,,0.00,weatherlink.com 1.10,2013-07-14 15:55:00,
2013-07-14 12:10:00,87.9,73.0,30.13,SSE,155,5.0,7.0,61,0.00,,,0.00,weatherlink.com 1.10,2013-07-14 16:10:00,
2013-07-14 12:25:00,87.7,72.0,30.13,SE,145,5.0,8.0,59,0.00,,,0.00,weatherlink.com 1.10,2013-07-14 16:25:00,
2013-07-14 12:40:00,88.6,74.0,30.13,East,86,4.0,5.0,62,0.00,,,0.00,weatherlink.com 1.10,2013-07-14 16:40:00,
2013-07-14 12:55:00,87.8,73.0,30.13,SSE,150,2.0,4.0,61,0.00,,,0.00,weatherlink.com 1.10,2013-07-14 16:55:00,
2013-07-14 13:10:00,88.7,73.0,30.13,North,8,1.0,4.0,60,0.00,,,0.00,weatherlink.com 1.10,2013-07-14 17:10:00,
2013-07-14 13:25:00,89.5,72.0,30.13,ENE,65,2.0,6.0,56,0.00,,,0.00,weatherlink.com 1.10,2013-07-14 17:25:00,
2013-07-14 13:40:00,89.1,73.0,30.13,SSW,212,2.0,4.0,59,0.00,,,0.00,weatherlink.com 1.10,2013-07-14 17:40:00,
2013-07-14 13:55:00,89.6,72.0,30.13,SSE,155,0.0,5.0,56,0.00,,,0.00,weatherlink.com 1.10,2013-07-14 17:55:00,
2013-07-14 14:10:00,90.5,74.0,30.13,WNW,290,1.0,5.0,59,0.00,,,0.00,weatherlink.com 1.10,2013-07-14 18:10:00,
2013-07-14 14:25:00,89.7,72.0,30.13,SE,138,0.0,5.0,56,0.00,,,0.00,weatherlink.com 1.10,2013-07-14 18:25:00,
2013-07-14 14:40:00,89.4,73.0,30.13,NE,41,2.0,4.0,59,0.00,,,0.00,weatherlink.com 1.10,2013-07-14 18:40:00,
2013-07-14 14:55:00,89.9,75.0,30.12,SSE,155,1.0,3.0,62,0.00,,,0.00,weatherlink.com 1.10,2013-07-14 18:55:00,
2013-07-14 15:10:00,91.0,75.0,30.12,SSW,207,1.0,4.0,59,0.00,,,0.00,weatherlink.com 1.10,2013-07-14 19:10:00,
2013-07-14 15:25:00,90.2,73.0,30.13,ENE,77,1.0,5.0,58,0.00,,,0.00,weatherlink.com 1.10,2013-07-14 19:25:00,
2013-07-14 15:40:00,89.2,73.0,30.12,ESE,115,2.0,5.0,59,0.00,,,0.00,weatherlink.com 1.10,2013-07-14 19:40:00,
2013-07-14 15:56:00,91.1,73.0,30.12,SE,131,2.0,7.0,55,0.00,,,0.00,weatherlink.com 1.10,2013-07-14 19:56:00,
2013-07-14 16:11:00,90.0,73.0,30.12,NE,56,1.0,6.0,57,0.00,,,0.00,weatherlink.com 1.10,2013-07-14 20:11:00,
2013-07-14 16:26:00,88.8,72.0,30.11,South,184,1.0,5.0,57,0.00,,,0.00,weatherlink.com 1.10,2013-07-14 20:26:00,
2013-07-14 16:41:00,91.0,74.0,30.11,West,262,0.0,4.0,58,0.00,,,0.00,weatherlink.com 1.10,2013-07-14 20:41:00,
2013-07-14 16:56:00,90.4,72.0,30.12,ENE,59,0.0,5.0,55,0.00,,,0.00,weatherlink.com 1.10,2013-07-14 20:56:00,
2013-07-14 17:11:00,90.9,74.0,30.11,East,83,1.0,1.0,57,0.00,,,0.00,weatherlink.com 1.10,2013-07-14 21:11:00,
2013-07-14 17:26:00,91.0,73.0,30.11,ENE,69,2.0,5.0,56,0.00,,,0.00,weatherlink.com 1.10,2013-07-14 21:26:00,
2013-07-14 17:41:00,90.0,74.0,30.11,SE,145,1.0,2.0,59,0.00,,,0.00,weatherlink.com 1.10,2013-07-14 21:41:00,
2013-07-14 17:56:00,91.0,74.0,30.11,SSE,149,1.0,8.0,57,0.00,,,0.00,weatherlink.com 1.10,2013-07-14 21:56:00,
2013-07-14 18:11:00,91.0,75.0,30.11,East,87,1.0,3.0,60,0.00,,,0.00,weatherlink.com 1.10,2013-07-14 22:11:00,
2013-07-14 18:26:00,92.4,74.0,30.10,SSW,204,1.0,3.0,55,0.00,,,0.00,weatherlink.com 1.10,2013-07-14 22:26:00,
2013-07-14 18:41:00,92.5,73.0,30.10,East,93,1.0,4.0,54,0.00,,,0.00,weatherlink.com 1.10,2013-07-14 22:41:00,
2013-07-14 18:56:00,90.9,73.0,30.10,SW,214,2.0,5.0,55,0.00,,,0.00,weatherlink.com 1.10,2013-07-14 22:56:00,
2013-07-14 19:11:00,90.6,73.0,30.10,SSE,148,1.0,4.0,57,0.00,,,0.00,weatherlink.com 1.10,2013-07-14 23:11:00,
2013-07-14 19:26:00,90.4,73.0,30.10,ESE,121,0.0,3.0,56,0.00,,,0.00,weatherlink.com 1.10,2013-07-14 23:26:00,
2013-07-14 19:41:00,90.0,73.0,30.11,SSE,165,1.0,3.0,57,0.00,,,0.00,weatherlink.com 1.10,2013-07-14 23:41:00,
2013-07-14 19:56:00,89.8,73.0,30.11,SSE,163,0.0,2.0,58,0.00,,,0.00,weatherlink.com 1.10,2013-07-14 23:56:00,
2013-07-14 20:11:00,87.8,73.0,30.11,ESE,122,0.0,2.0,62,0.00,,,0.00,weatherlink.com 1.10,2013-07-15 00:11:00,
2013-07-14 20:26:00,86.5,73.0,30.11,ESE,121,0.0,0.0,64,0.00,,,0.00,weatherlink.com 1.10,2013-07-15 00:26:00,
2013-07-14 20:41:00,85.5,73.0,30.12,SE,131,0.0,0.0,67,0.00,,,0.00,weatherlink.com 1.10,2013-07-15 00:41:00,
2013-07-14 20:56:00,84.5,73.0,30.12,SE,129,0.0,0.0,68,0.00,,,0.00,weatherlink.com 1.10,2013-07-15 00:56:00,
2013-07-14 21:11:00,82.9,73.0,30.12,SE,129,0.0,0.0,73,0.00,,,0.00,weatherlink.com 1.10,2013-07-15 01:11:00,
2013-07-14 21:26:00,82.1,73.0,30.13,North,354,0.0,0.0,74,0.00,,,0.00,weatherlink.com 1.10,2013-07-15 01:26:00,
2013-07-14 21:41:00,82.1,73.0,30.13,NNW,336,0.0,0.0,74,0.00,,,0.00,weatherlink.com 1.10,2013-07-15 01:41:00,
2013-07-14 21:56:00,81.9,73.0,30.14,East,98,2.0,3.0,75,0.00,,,0.00,weatherlink.com 1.10,2013-07-15 01:56:00,
2013-07-14 22:11:00,81.7,73.0,30.14,SSE,157,0.0,2.0,76,0.00,,,0.00,weatherlink.com 1.10,2013-07-15 02:11:00,
2013-07-14 22:26:00,81.0,73.0,30.14,ESE,118,0.0,2.0,76,0.00,,,0.00,weatherlink.com 1.10,2013-07-15 02:26:00,
2013-07-14 22:41:00,80.0,73.0,30.15,ESE,118,0.0,1.0,78,0.00,,,0.00,weatherlink.com 1.10,2013-07-15 02:41:00,
2013-07-14 22:56:00,79.2,72.0,30.14,ESE,119,0.0,1.0,79,0.00,,,0.00,weatherlink.com 1.10,2013-07-15 02:56:00,
2013-07-14 23:11:00,79.4,72.0,30.15,SSE,155,0.0,1.0,79,0.00,,,0.00,weatherlink.com 1.10,2013-07-15 03:11:00,
2013-07-14 23:26:00,78.5,72.0,30.16,SSE,155,0.0,0.0,80,0.00,,,0.00,weatherlink.com 1.10,2013-07-15 03:26:00,
2013-07-14 23:41:00,78.0,73.0,30.15,SSE,156,0.0,1.0,83,0.00,,,0.00,weatherlink.com 1.10,2013-07-15 03:41:00,
2013-07-14 23:56:00,78.0,73.0,30.15,SSE,149,0.0,1.0,84,0.00,,,0.00,weatherlink.com 1.10,2013-07-15 03:56:00,